[[{"header":{"parameterUnit":"m.s-1","parameterCategory":1,"la1":30.2991,"la2":30.254,"lo1":-89.0895,"lo2":-89.0444,"dy":0.0017,"dx":0.0017,"nx":28,"ny":28,"refTime":"2026-02-06T03:00:00:Z","depth":0,"parameterNumber":2,"parameterNumberName":"U-component_of_WINDS"},"data":[0,0,0,0,0,0,0,0,0,0,0,0,0,0,0,0,0,0,0,0,0,0,0,0,0,0,0,0,0,0,0,0,0,0,0,0,0,0,0,0,0,0,0,0,0,0,0,0,0,0,0,0,0,0,0,0,0,0,-1.0103,-1.0103,0,-1.0132,-1.0132,-1.0133,-1.0121,-1.0121,-1.012,-1.0119,-1.0152,-1.0154,-1.0155,0,0,0,0,0,0,0,0,0,0,0,0,0,-1.0038,-1.004,-1.0103,-1.0103,-1.0103,-1.0132,-1.0132,-1.0133,-1.0121,-1.0121,-1.012,-1.0119,-1.0152,-1.0153,-1.0155,0,0,0,0,0,0,0,0,0,0,0,0,0,-1.0067,-1.004,-1.0102,-1.0101,-1.0101,-1.0132,-1.0132,-1.0133,-1.0122,-1.0121,-1.0119,-1.0119,-1.0151,-1.0153,-1.0155,-1.019,0,0,-1.0162,-1.0163,0,0,0,0,0,0,0,0,-1.0065,-1.0069,-1.0101,-1.0101,-1.0101,-1.0122,-1.0122,-1.0152,-1.0122,-1.0114,-1.0119,-1.0118,-1.0143,-1.0146,-1.0154,-1.0192,-1.0193,-1.0163,-1.0164,-1.0165,-1.0166,0,0,0,0,0,0,0,-1.0063,-1.0068,-1.0114,-1.0101,-1.0102,-1.0099,-1.0102,-1.0128,-1.0134,-1.0115,-1.0114,-1.0117,-1.0143,-1.0152,-1.0154,-1.0194,-1.0163,-1.0165,-1.0166,-1.0167,-1.0262,-1.0263,0,0,0,0,0,0,-1.0061,-1.0066,-1.0113,-1.0115,-1.008,-1.0101,-1.0105,-1.0116,-1.0134,-1.0135,-1.0118,-1.0117,-1.0148,-1.0152,-1.0156,-1.0198,-1.0165,-1.0167,-1.0168,-1.026,-1.0262,-1.0263,0,0,0,0,0,0,-1.006,-1.0065,-1.0112,-1.0091,-1.0096,-1.0104,-1.0117,-1.0118,-1.0126,-1.0136,-1.0138,-1.0126,-1.0148,-1.0152,-1.0181,-1.0199,-1.0168,-1.017,-1.0259,-1.0261,-1.0262,-1.0282,0,0,0,0,0,0,-1.0058,-1.0065,-1.0078,-1.0091,-1.0098,-1.0137,-1.0118,-1.0119,-1.013,-1.0128,-1.0144,-1.0145,-1.0147,-1.0178,-1.0184,-1.0201,-1.0172,-1.0258,-1.026,-1.0262,-1.028,-1.0284,-1.0288,0,0,0,0,0,-1.0056,-1.0083,-1.0078,-1.0084,-1.0114,-1.0138,-1.0142,-1.0143,-1.0131,-1.0145,-1.0151,-1.0145,-1.0195,-1.0181,-1.0187,-1.0206,-1.0257,-1.0259,-1.0262,-1.0278,-1.0283,-1.0288,0,0,0,0,0,0,-1.0073,-1.0084,-1.008,-1.0112,-1.0124,-1.0136,-1.0153,-1.0148,-1.0165,-1.0162,-1.0163,-1.0167,-1.0197,-1.0204,-1.0188,-1.024,-1.0224,-1.0228,-1.0235,-1.024,-1.0244,-1.0242,-1.0174,0,0,0,0,0,-1.008,-1.0098,-1.0108,-1.0135,-1.0141,-1.0146,-1.0157,-1.0156,-1.0169,-1.0174,-1.0183,-1.0196,-1.0215,-1.0228,-1.0246,-1.028,-1.0284,-1.0296,-1.03,-1.0303,-1.0307,-1.0326,-1.0331,-1.0272,-1.0272,-1.0271,0,0,-1.0096,-1.0104,-1.0116,-1.0139,-1.0148,-1.0167,-1.015,-1.0172,-1.0186,-1.0178,-1.0206,-1.0212,-1.0227,-1.0259,-1.0274,-1.0266,-1.0324,-1.0306,-1.0309,-1.0311,-1.0329,-1.0335,-1.034,-1.0273,-1.0273,-1.0273,0,0,-1.0134,-1.0142,-1.0166,-1.0175,-1.0189,-1.0192,-1.0197,-1.021,-1.0214,-1.0241,-1.0235,-1.0253,-1.0285,-1.0296,-1.0306,-1.0347,-1.0343,-1.0353,-1.0374,-1.0393,-1.0398,-1.0402,-1.0417,-1.0422,-1.0357,-1.0357,-1.0357,0,-1.0152,-1.018,-1.0179,-1.02,-1.0211,-1.0202,-1.0227,-1.0236,-1.0255,-1.0263,-1.0254,-1.0294,-1.0303,-1.0338,-1.0348,-1.0356,-1.0363,-1.0352,-1.0397,-1.0401,-1.0405,-1.0419,-1.0425,-1.0358,-1.0358,-1.0358,-1.0358,0,-1.0202,-1.0222,-1.0239,-1.0257,-1.0269,-1.0292,-1.0294,-1.0307,-1.0305,-1.0309,-1.0337,-1.0348,-1.0368,-1.0376,-1.0375,-1.041,-1.0405,-1.0396,-1.0381,-1.0412,-1.0426,-1.0431,-1.036,-1.0359,-1.0359,-1.0359,0,0,-1.0254,-1.0269,-1.0276,-1.0283,-1.0297,-1.0313,-1.0335,-1.0354,-1.0365,-1.0378,-1.0397,-1.0424,-1.0416,-1.0427,-1.0427,-1.0443,-1.0475,-1.0432,-1.0433,-1.044,-1.0515,-1.0522,-1.0529,-1.0471,-1.0472,-1.0473,-1.0514,0,-1.0294,-1.0332,-1.0331,-1.0367,-1.0385,-1.0377,-1.0397,-1.0408,-1.0412,-1.0428,-1.0433,-1.0452,-1.044,-1.0446,-1.0462,-1.0468,-1.049,-1.0465,-1.049,-1.0491,-1.0487,-1.0536,-1.0543,-1.0581,-1.0519,-1.052,-1.0521,0,-1.0346,-1.036,-1.0398,-1.0408,-1.0416,-1.0433,-1.045,-1.0465,-1.0478,-1.048,-1.0491,-1.0488,-1.0511,-1.0494,-1.0526,-1.0509,-1.0519,-1.0523,-1.0525,-1.0528,-1.0509,-1.0541,-1.0594,-1.06,-1.0529,-1.0529,-1.0528,0,-1.038,-1.0409,-1.0435,-1.0441,-1.0454,-1.0467,-1.0473,-1.0484,-1.0495,-1.051,-1.0517,-1.0534,-1.0544,-1.0558,-1.0559,-1.0547,-1.0592,-1.0575,-1.0595,-1.0595,-1.0606,-1.0605,-1.0661,-1.0611,-1.0611,-1.0611,-1.061,0,-1.0426,-1.045,-1.045,-1.0466,-1.0492,-1.0491,-1.0517,-1.0522,-1.0532,-1.0549,-1.0543,-1.056,-1.056,-1.0578,-1.0579,-1.0606,-1.061,-1.0612,-1.0613,-1.0613,-1.0613,-1.0621,-1.0619,-1.0612,-1.0612,-1.0611,-1.0611,0,-1.0469,-1.0471,-1.0499,-1.0508,-1.0511,-1.053,-1.0538,-1.0554,-1.0557,-1.0579,-1.0584,-1.0589,-1.0609,-1.0611,-1.0635,-1.0635,-1.0667,-1.0665,-1.0663,-1.0663,-1.0683,-1.0681,-1.0747,-1.0756,-1.0699,-1.0699,-1.07,0,-1.0499,-1.0517,-1.0527,-1.0538,-1.0545,-1.0562,-1.0573,-1.0572,-1.0583,-1.0598,-1.0612,-1.0631,-1.0646,-1.0678,-1.0684,-1.0701,-1.0699,-1.0721,-1.0702,-1.0702,-1.07,-1.07,-1.0701,-1.0725,-1.0726,-1.0726,-1.0727,0,-1.0551,-1.055,-1.0566,-1.0581,-1.0594,-1.0606,-1.0618,-1.0627,-1.0627,-1.0641,-1.066,-1.0672,-1.0695,-1.0714,-1.0731,-1.0738,-1.0733,-1.0732,-1.0738,-1.0739,-1.0738,-1.0739,-1.0674,-1.0731,-1.0731,-1.073,-1.073,-1.073,-1.0589,-1.0604,-1.0614,-1.0631,-1.0639,-1.065,-1.0665,-1.0669,-1.0685,-1.0703,-1.0701,-1.0723,-1.0734,-1.0757,-1.0765,-1.0782,-1.0775,-1.0783,-1.0785,-1.0787,-1.0789,-1.0734,-1.0785,-1.0785,-1.0785,-1.0785,-1.0784,0,-1.0641,-1.0647,-1.0662,-1.0678,-1.0691,-1.0684,-1.0696,-1.0708,-1.0727,-1.0737,-1.0752,-1.0774,-1.0792,-1.0799,-1.0816,-1.0829,-1.0827,-1.0834,-1.0833,-1.0835,-1.0795,-1.0788,-1.0835,-1.0835,-1.0835,-1.0835,-1.0835,-1.0835,-1.067,-1.0695,-1.0696,-1.0725,-1.073,-1.0751,-1.0758,-1.0768,-1.0777,-1.0801,-1.0816,-1.082,-1.0829,-1.0847,-1.0863,-1.0865,-1.0872,-1.088,-1.088,-1.0843,-1.0838,-1.0833,-1.0827,-1.0881,-1.0881,-1.0919,-1.092,-1.092]},{"header":{"parameterUnit":"m.s-1","parameterCategory":1,"la1":30.2991,"la2":30.254,"lo1":-89.0895,"lo2":-89.0444,"dy":0.0017,"dx":0.0017,"nx":28,"ny":28,"refTime":"2026-02-06T03:00:00:Z","depth":0,"parameterNumber":3,"parameterNumberName":"V-component_of_WINDS"},"data":[0,0,0,0,0,0,0,0,0,0,0,0,0,0,0,0,0,0,0,0,0,0,0,0,0,0,0,0,0,0,0,0,0,0,0,0,0,0,0,0,0,0,0,0,0,0,0,0,0,0,0,0,0,0,0,0,0,0,-5.6074,-5.6076,0,-5.6233,-5.6235,-5.6237,-5.6246,-5.6244,-5.6242,-5.6241,-5.6403,-5.6409,-5.6415,0,0,0,0,0,0,0,0,0,0,0,0,0,-5.578,-5.5785,-5.6074,-5.6076,-5.6078,-5.6233,-5.6235,-5.6237,-5.6246,-5.6244,-5.6242,-5.624,-5.6401,-5.6408,-5.6415,0,0,0,0,0,0,0,0,0,0,0,0,0,-5.592,-5.5787,-5.6073,-5.6101,-5.6105,-5.6232,-5.6235,-5.6238,-5.6247,-5.6244,-5.6241,-5.6239,-5.6399,-5.6407,-5.6416,-5.6526,0,0,-5.6444,-5.6448,0,0,0,0,0,0,0,0,-5.5912,-5.5931,-5.6095,-5.6099,-5.6104,-5.6217,-5.6191,-5.6334,-5.6248,-5.6193,-5.6241,-5.6238,-5.6343,-5.6357,-5.6392,-5.6534,-5.6541,-5.6445,-5.645,-5.6454,-5.6457,0,0,0,0,0,0,0,-5.5902,-5.5924,-5.6137,-5.6097,-5.6103,-5.6106,-5.6123,-5.6218,-5.6281,-5.6198,-5.6199,-5.6217,-5.6345,-5.6384,-5.6396,-5.6543,-5.6444,-5.6452,-5.6458,-5.6461,-5.6786,-5.6789,0,0,0,0,0,0,-5.5887,-5.5916,-5.6132,-5.6141,-5.5999,-5.6114,-5.6133,-5.6183,-5.628,-5.6293,-5.622,-5.6217,-5.637,-5.6386,-5.6402,-5.6539,-5.6454,-5.6462,-5.6468,-5.6783,-5.6787,-5.679,0,0,0,0,0,0,-5.5881,-5.5906,-5.6125,-5.6029,-5.6057,-5.6122,-5.6179,-5.6188,-5.6227,-5.6297,-5.6308,-5.6247,-5.6368,-5.6389,-5.6496,-5.6545,-5.6466,-5.6475,-5.6779,-5.6784,-5.6788,-5.6813,0,0,0,0,0,0,-5.5872,-5.5904,-5.5946,-5.603,-5.6062,-5.6216,-5.6182,-5.6193,-5.6242,-5.6241,-5.6326,-5.6337,-5.6368,-5.6483,-5.6505,-5.6556,-5.6482,-5.6775,-5.6781,-5.6787,-5.6808,-5.6818,-5.6827,0,0,0,0,0,-5.5862,-5.5946,-5.5948,-5.5974,-5.6116,-5.6219,-5.6238,-5.6271,-5.6246,-5.6289,-5.6335,-5.6335,-5.6536,-5.6493,-5.6519,-5.6573,-5.6772,-5.6779,-5.6786,-5.6804,-5.6816,-5.6827,0,0,0,0,0,0,-5.5865,-5.5957,-5.596,-5.6074,-5.6139,-5.622,-5.6276,-5.6282,-5.6355,-5.635,-5.6388,-5.6408,-5.6514,-5.6554,-5.6505,-5.6686,-5.6651,-5.6664,-5.6656,-5.6668,-5.6677,-5.6666,-5.6489,0,0,0,0,0,-5.5879,-5.5955,-5.6031,-5.6124,-5.6157,-5.6211,-5.6257,-5.6277,-5.6345,-5.6373,-5.6426,-5.6492,-5.6571,-5.6621,-5.6697,-5.6814,-5.6834,-5.6864,-5.6873,-5.688,-5.6891,-5.6958,-5.6973,-5.6814,-5.6814,-5.6814,0,0,-5.5908,-5.5968,-5.6014,-5.6126,-5.6179,-5.6257,-5.6234,-5.6317,-5.6376,-5.6385,-5.649,-5.6531,-5.6608,-5.6721,-5.6773,-5.6758,-5.694,-5.689,-5.6895,-5.6902,-5.6967,-5.6982,-5.6996,-5.6819,-5.6818,-5.6817,0,0,-5.6003,-5.6055,-5.6139,-5.6193,-5.6273,-5.6309,-5.6329,-5.6411,-5.6439,-5.6545,-5.6554,-5.6625,-5.6758,-5.6814,-5.6859,-5.6977,-5.698,-5.7001,-5.7049,-5.7114,-5.7127,-5.7138,-5.7182,-5.7197,-5.7011,-5.7011,-5.7011,0,-5.6029,-5.6148,-5.6182,-5.6266,-5.6316,-5.6329,-5.6416,-5.6466,-5.6567,-5.6602,-5.6583,-5.6753,-5.6805,-5.6932,-5.6961,-5.6997,-5.7022,-5.6991,-5.7122,-5.7134,-5.7145,-5.7188,-5.7204,-5.7013,-5.7013,-5.7013,-5.7012,0,-5.6178,-5.626,-5.6318,-5.6417,-5.6473,-5.6558,-5.6606,-5.6659,-5.6675,-5.6713,-5.6822,-5.6886,-5.6976,-5.7007,-5.7023,-5.7138,-5.7126,-5.7114,-5.708,-5.7162,-5.7202,-5.7219,-5.7016,-5.7015,-5.7015,-5.7014,0,0,-5.6277,-5.6395,-5.6416,-5.6462,-5.6553,-5.6617,-5.6703,-5.6792,-5.6838,-5.6907,-5.6982,-5.7096,-5.7087,-5.7138,-5.716,-5.7217,-5.7309,-5.7199,-5.7201,-5.7219,-5.7442,-5.7451,-5.7469,-5.7312,-5.7315,-5.7318,-5.7436,0,-5.6383,-5.6537,-5.6571,-5.6704,-5.6782,-5.6797,-5.6872,-5.6936,-5.6975,-5.7046,-5.7089,-5.717,-5.715,-5.7182,-5.7239,-5.7286,-5.7355,-5.7278,-5.7383,-5.7386,-5.7364,-5.749,-5.75,-5.7609,-5.7452,-5.7455,-5.7457,0,-5.6526,-5.6601,-5.6742,-5.6825,-5.6858,-5.6925,-5.7011,-5.7079,-5.7153,-5.7177,-5.7236,-5.7253,-5.7344,-5.7306,-5.7433,-5.738,-5.7425,-5.7455,-5.746,-5.7472,-5.7427,-5.7507,-5.7644,-5.7661,-5.7482,-5.748,-5.7478,0,-5.6587,-5.6723,-5.6825,-5.6864,-5.6962,-5.7009,-5.7053,-5.7124,-5.7176,-5.7251,-5.7285,-5.7369,-5.7416,-5.7481,-5.7521,-5.7488,-5.7646,-5.761,-5.767,-5.7669,-5.7702,-5.77,-5.785,-5.7729,-5.7729,-5.7729,-5.7728,0,-5.6702,-5.6788,-5.6854,-5.6917,-5.7015,-5.7054,-5.715,-5.7193,-5.7257,-5.7329,-5.7346,-5.7414,-5.7462,-5.7537,-5.7568,-5.767,-5.769,-5.7713,-5.7721,-5.7713,-5.771,-5.7743,-5.7737,-5.7733,-5.7732,-5.7731,-5.773,0,-5.6787,-5.6834,-5.6947,-5.7032,-5.7055,-5.7124,-5.7197,-5.7259,-5.7299,-5.739,-5.7414,-5.7476,-5.7565,-5.7611,-5.7722,-5.7743,-5.7859,-5.7861,-5.7834,-5.7838,-5.7896,-5.789,-5.8073,-5.81,-5.796,-5.7961,-5.7962,0,-5.6858,-5.6925,-5.7017,-5.7067,-5.7112,-5.7192,-5.7246,-5.7288,-5.7343,-5.7434,-5.7486,-5.7576,-5.7651,-5.7793,-5.7848,-5.7933,-5.7939,-5.7997,-5.7952,-5.7942,-5.7942,-5.7938,-5.7946,-5.8005,-5.8007,-5.8008,-5.8009,0,-5.6979,-5.7,-5.7076,-5.7163,-5.7227,-5.7296,-5.7365,-5.7405,-5.7458,-5.752,-5.7612,-5.767,-5.7785,-5.7875,-5.7965,-5.801,-5.8019,-5.8023,-5.8041,-5.8034,-5.8016,-5.8029,-5.7858,-5.8018,-5.8017,-5.8016,-5.8016,-5.8016,-5.706,-5.7121,-5.7196,-5.7282,-5.7339,-5.7403,-5.7467,-5.7515,-5.7593,-5.769,-5.771,-5.7807,-5.7882,-5.8004,-5.8052,-5.813,-5.8118,-5.8144,-5.8151,-5.8157,-5.8161,-5.8003,-5.8146,-5.8146,-5.8146,-5.8146,-5.8145,0,-5.7183,-5.7233,-5.7312,-5.7408,-5.7477,-5.748,-5.7557,-5.7614,-5.77,-5.7768,-5.7842,-5.7949,-5.8037,-5.81,-5.819,-5.824,-5.8247,-5.8263,-5.826,-5.8271,-5.8166,-5.8142,-5.8256,-5.8256,-5.8256,-5.8256,-5.8256,-5.8256,-5.7256,-5.736,-5.739,-5.7523,-5.7573,-5.7669,-5.7713,-5.7773,-5.7829,-5.7948,-5.8021,-5.8062,-5.8129,-5.8225,-5.8306,-5.8323,-5.8356,-5.8371,-5.8388,-5.8289,-5.8278,-5.8266,-5.8244,-5.8378,-5.8378,-5.8487,-5.8488,-5.8488]}]]